DELTA 1 DEB, 7037

Orbit data source: Space-Track

DELTA 1 DEB, 7037 is space debris in LEO originally from a launch on Tue, 06 Nov 1973 UTC launched from the Air Force Western Test Range (AFWTR). Debris objects in space refer to the collection of defunct objects orbiting the Earth. Examples of debris include non-operational satellites, rocket bodies, and fragments generated from explosions, collisions, or faulty payload assembly.

Loading next visibility...
DELTA 1 DEB details
Identifier
7037, 1973-086AD
Orbit
LEO
Last TLE update7 hours ago
Origin
Flag of USGSFC (US)
ManufacturerUnknown
MissionSpacecraft
Bus & MotorUnknown
MassUnknown
Launch date (UTC)
1973-11-06 (51 years ago)
Launch vehicleUnknown
Launch site
Air Force Western Test Range (AFWTR)
Object type
Payload
Rocket body
Debris
Shape & HBRUnknown
Radar Cross SectionMedium (>0.1 m² and <1 m²)

Expand to show TLE details & history

TLE from 7 hours ago
0 DELTA 1 DEB
1  7037U 73086AD  25018.75723454 -.00000451  00000-0 -52074-2 0  9996
2  7037 102.0605 111.1582 0321328 326.7767 186.4668 11.86617883217322
Epoch: 2025-01-18T18:10Z
Definitive object data (Epoch: 2025-01-18T18:10:25.064Z)
Latitude26.54053°
Longitude-93.75039°
Altitude2,003.571 km
Speed6.788 km/s
True Right ascension19h 49m 01s
True Declination26° 25' 25"
Sunlit
Object was in daylight at TLE epoch
Visualization TLE readout
Latitude-64.64753°
Longitude107.06996°
Altitude1,546.084 km
Speed7.189 km/s
Apparent Right ascension12h 03m 49s
Apparent Declination-58° 43' 14"
Sunlit
Object is in daylight
Visualization observer readout
Local Sidereal Time01:56:34
Azimuth145.872° SSE
Elevation-64.079°
Doppler factor1
Orbital elements
Apogee altitude1,999.808 km
Perigee altitude1,478.157 km
Semi-major axis8,117.119 km
Eccentricity0.0321328
Inclination102.0605°
RAAN111.1582°
Arg. of periapsis326.7767°
True anomaly186.06803°
Mean anomaly186.4668°
Eccentric anomaly186.26586°
Mean motion2.96784 °/min
BSTAR-0.0052074
Orbital period121.3 mins
Loading maneuver chart data...
Loading historical data...
Loading historical data...
Loading historical data...
Loading historical data...
Loading historical data...
Loading historical data...
Loading historical data...

DELTA 1 DEB Visibility forecast

Observer location: undefined°, undefined

Span
Click to sort rows by Start time (UTC) header in descending order
Start Az.
Max El. time (UTC)
Max El. Az.
Max El.
End time (UTC)
End Az.
11 mins2025-01-19 03:37:18.329Z85.589° E2025-01-19 03:42:18.329Z49.983° ENE19.567°2025-01-19 03:48:18.329Z8.502° NNE
17 mins2025-01-19 05:32:18.329Z153.917° SSE2025-01-19 05:40:18.329Z42.965° NE44.56°2025-01-19 05:49:18.329Z344.374° N
11 mins2025-01-19 07:35:18.329Z232.082° WSW2025-01-19 07:40:18.329Z271.53° WNW20.138°2025-01-19 07:46:18.329Z313.349° NW
19 mins2025-01-19 18:14:18.329Z29.224° NE2025-01-19 18:23:18.329Z103.607° ESE39.209°2025-01-19 18:33:18.329Z176.812° S
18 mins2025-01-19 20:13:18.329Z3.762° NNE2025-01-19 20:21:18.329Z305.651° NW35.243°2025-01-19 20:31:18.329Z234.646° WSW
5 mins2025-01-19 22:15:18.329Z336.851° NNW2025-01-19 22:17:18.329Z325.405° NNW11.899°2025-01-19 22:20:18.329Z308.402° NW
|